Date String (YYYY-MM-DD hh:mm:ss) UTC,Instrument flags,absolute air pressure of the measurement (hPa),sample flow rate (lpm),inlet stack bypass flow (lpm),air temperature of the measurement (°C),ambient temperature measured by the external sensor (°C),aerosol sample conditioner tube jacket temperature (°C),OPC LED temperature (°C),internal box temperature (°C),relative humidity of the measurement (%),span deviation,mass concentration of particles derived from Lorenz-Mie calculation of OPC scattering (μg/m³),mass concentration of particles derived from Lorenz-Mie calculation of OPC scattering (μg/m³),mass concentration of particles derived from Lorenz-Mie calculation of OPC scattering (μg/m³)
DateTimeUTC,F1_M11,P_M11,Q1_M11,Q2_M11,T1_M11,T2_M11,T3_M11,T4_M11,T5_M11,U1_M11,ZSPAN_M11,X0_M11,X2_M11,X1_M11
2023-06-21 19:00:00,SystemResetWarning,0832.5,4.99,000.00,031.6,025.6,000.0,039.6,031.4,34.6,0003.4,0022.27,0011.83,0010.38
2023-06-21 19:01:00,SystemResetWarning,0832.5,4.99,000.00,031.7,026.1,000.0,039.6,031.5,34.2,0003.3,0022.34,0011.86,0010.36
2023-06-21 19:02:00,SystemResetWarning,0832.6,5.02,000.00,031.8,026.5,000.0,039.6,031.5,33.9,0003.2,0022.82,0011.90,0010.33
2023-06-21 19:03:00,SystemResetWarning,0832.5,5.00,000.00,031.8,026.9,000.0,039.6,031.5,33.5,0003.3,0023.86,0011.90,0010.31
2023-06-21 19:04:00,SystemResetWarning,0832.5,5.00,000.00,031.8,027.2,000.0,039.7,031.5,32.8,0003.3,0024.05,0011.88,0010.31
2023-06-21 19:05:00,SystemResetWarning,0832.5,5.00,000.00,031.8,027.5,000.0,039.7,031.6,33.9,0003.3,0022.91,0011.89,0010.31
2023-06-21 19:06:00,SystemResetWarning,0832.5,5.01,000.00,031.8,027.8,000.0,039.7,031.7,34.0,0003.3,0022.54,0011.85,0010.32
2023-06-21 19:07:00,SystemResetWarning,0832.4,5.00,000.00,031.8,028.0,000.0,039.7,031.7,34.2,0003.2,0021.92,0011.80,0010.33
2023-06-21 19:08:00,SystemResetWarning,0832.4,4.99,000.00,031.8,027.8,000.0,039.7,031.9,33.2,0002.9,0022.09,0011.76,0010.30
2023-06-21 19:09:00,SystemResetWarning,0832.4,5.00,000.00,031.8,026.0,000.0,039.7,031.9,34.0,0003.0,0021.53,0011.78,0010.27
2023-06-21 19:10:00,SystemResetWarning,0832.4,5.01,000.00,031.8,024.9,000.0,039.6,031.8,33.2,0002.9,0021.32,0011.78,0010.26
2023-06-21 19:11:00,SystemResetWarning,0832.3,5.00,000.00,031.7,024.9,000.0,039.6,031.6,34.3,0002.8,0021.12,0011.69,0010.24
2023-06-21 19:12:00,SystemResetWarning,0832.3,5.01,000.00,031.5,025.2,000.0,039.6,031.3,34.3,0002.8,0021.07,0011.68,0010.25
2023-06-21 19:13:00,SystemResetWarning,0832.3,4.98,000.00,031.3,025.7,000.0,039.6,031.2,35.0,0002.9,0021.69,0011.72,0010.26
2023-06-21 19:14:00,SystemResetWarning,0832.3,5.03,000.00,031.3,026.2,000.0,039.5,031.3,35.1,0002.7,0020.45,0011.71,0010.29
2023-06-21 19:15:00,SystemResetWarning,0832.3,5.00,000.00,031.5,026.6,000.0,039.5,031.5,34.3,0002.7,0019.80,0011.71,0010.32
2023-06-21 19:16:00,SystemResetWarning,0832.3,4.98,000.00,031.6,027.0,000.0,039.5,031.6,33.5,0002.7,0019.72,0011.75,0010.34
2023-06-21 19:17:00,SystemResetWarning,0832.3,5.01,000.00,031.7,027.3,000.0,039.5,031.6,32.8,0002.7,0021.10,0011.79,0010.33
2023-06-21 19:18:00,SystemResetWarning,0832.3,5.01,000.00,031.7,027.6,000.0,039.6,031.6,33.0,0002.6,0021.85,0011.79,0010.31
2023-06-21 19:19:00,SystemResetWarning,0832.3,5.00,000.00,031.8,027.8,000.0,039.6,031.7,33.3,0002.7,0021.67,0011.76,0010.29
2023-06-21 19:20:00,SystemResetWarning,0832.3,5.00,000.00,031.8,028.0,000.0,039.6,031.8,33.3,0002.8,0022.05,0011.71,0010.24
2023-06-21 19:21:00,SystemResetWarning,0832.3,4.99,000.00,031.8,027.5,000.0,039.6,031.9,33.6,0002.9,0022.34,0011.69,0010.20
2023-06-21 19:22:00,SystemResetWarning,0832.2,5.00,000.00,031.8,025.7,000.0,039.6,031.7,33.8,0002.8,0022.33,0011.71,0010.19
2023-06-21 19:23:00,SystemResetWarning,0832.2,5.00,000.00,031.8,024.9,000.0,039.5,031.7,33.6,0002.7,0022.87,0011.65,0010.15
2023-06-21 19:24:00,SystemResetWarning,0832.3,5.01,000.00,031.7,024.9,000.0,039.5,031.4,33.0,0002.7,0022.24,0011.49,0010.10
2023-06-21 19:25:00,SystemResetWarning,0832.2,5.01,000.00,031.4,025.3,000.0,039.5,031.2,32.8,0002.7,0022.50,0011.45,0010.06
2023-06-21 19:26:00,SystemResetWarning,0832.2,5.00,000.00,031.3,025.8,000.0,039.5,031.2,33.9,0002.8,0022.94,0011.44,0010.02
2023-06-21 19:27:00,SystemResetWarning,0832.2,4.99,000.00,031.3,026.3,000.0,039.5,031.3,34.0,0002.7,0022.47,0011.35,0009.95
2023-06-21 19:28:00,SystemResetWarning,0832.2,5.00,000.00,031.2,026.7,000.0,039.5,031.3,33.8,0002.5,0021.74,0011.34,0009.92
2023-06-21 19:29:00,SystemResetWarning,0832.2,5.00,000.00,031.2,027.1,000.0,039.5,031.4,34.5,0002.5,0021.48,0011.35,0009.93
2023-06-21 19:30:00,SystemResetWarning,0832.2,4.99,000.00,031.2,027.4,000.0,039.5,031.4,34.6,0002.1,0022.91,0011.37,0009.95
2023-06-21 19:31:00,SystemResetWarning,0832.2,5.01,000.00,031.2,027.7,000.0,039.5,031.5,34.7,0002.1,0023.34,0011.35,0009.98
2023-06-21 19:32:00,SystemResetWarning,0832.2,4.99,000.00,031.2,027.9,000.0,039.5,031.6,34.7,0002.1,0023.11,0011.36,0010.03
2023-06-21 19:33:00,SystemResetWarning,0832.2,5.00,000.00,031.3,027.8,000.0,039.5,031.7,34.7,0002.3,0023.61,0011.39,0010.07
2023-06-21 19:34:00,SystemResetWarning,0832.2,5.00,000.00,031.4,026.2,000.0,039.4,031.8,35.0,0002.2,0023.12,0011.43,0010.11
2023-06-21 19:35:00,SystemResetWarning,0832.2,5.02,000.00,031.5,024.9,000.0,039.3,031.8,34.1,0002.1,0023.11,0011.53,0010.14
2023-06-21 19:36:00,SystemResetWarning,0832.2,4.99,000.00,031.6,024.8,000.0,039.3,031.6,33.5,0002.0,0023.33,0011.55,0010.15
2023-06-21 19:37:00,SystemResetWarning,0832.2,4.99,000.00,031.4,025.2,000.0,039.3,031.3,33.9,0002.0,0023.28,0011.52,0010.14
2023-06-21 19:38:00,SystemResetWarning,0832.2,5.01,000.00,031.4,025.7,000.0,039.3,031.2,33.3,0002.4,0023.65,0011.52,0010.14
2023-06-21 19:39:00,SystemResetWarning,0832.2,5.00,000.00,031.3,026.1,000.0,039.3,031.3,33.9,0002.5,0022.94,0011.46,0010.13
2023-06-21 19:40:00,SystemResetWarning,0832.2,4.98,000.00,031.3,026.6,000.0,039.3,031.4,34.8,0002.6,0022.54,0011.46,0010.11
2023-06-21 19:41:00,SystemResetWarning,0832.2,5.03,000.00,031.4,027.0,000.0,039.4,031.4,34.3,0002.9,0020.96,0011.50,0010.12
2023-06-21 19:42:00,SystemResetWarning,0832.3,4.98,000.00,031.4,027.3,000.0,039.4,031.5,34.3,0002.8,0019.83,0011.49,0010.11
2023-06-21 19:43:00,SystemResetWarning,0832.3,5.01,000.00,031.4,027.6,000.0,039.4,031.6,34.1,0002.7,0019.66,0011.45,0010.08
2023-06-21 19:44:00,SystemResetWarning,0832.3,5.01,000.00,031.4,027.9,000.0,039.4,031.7,34.1,0002.8,0019.04,0011.42,0010.04
2023-06-21 19:45:00,SystemResetWarning,0832.2,4.98,000.00,031.5,027.4,000.0,039.4,031.8,34.5,0002.9,0019.36,0011.41,0010.02
2023-06-21 19:46:00,SystemResetWarning,0832.2,5.01,000.00,031.5,025.6,000.0,039.4,031.5,34.4,0003.0,0019.23,0011.34,0009.99
2023-06-21 19:47:00,SystemResetWarning,0832.2,4.99,000.00,031.4,024.8,000.0,039.3,031.5,34.9,0003.3,0019.23,0011.30,0009.96
2023-06-21 19:48:00,SystemResetWarning,0832.2,5.03,000.00,031.4,024.9,000.0,039.3,031.4,33.5,0003.2,0018.99,0011.33,0009.97
2023-06-21 19:49:00,SystemResetWarning,0832.2,4.98,000.00,031.3,025.3,000.0,039.3,031.2,33.4,0003.0,0019.72,0011.38,0010.02
2023-06-21 19:50:00,SystemResetWarning,0832.1,5.00,000.00,031.2,025.8,000.0,039.3,031.2,33.9,0003.0,0021.04,0011.48,0010.06
2023-06-21 19:51:00,SystemResetWarning,0832.1,5.00,000.00,031.2,026.3,000.0,039.3,031.2,34.7,0002.9,0021.03,0011.51,0010.10
2023-06-21 19:52:00,SystemResetWarning,0832.1,5.02,000.00,031.2,026.7,000.0,039.3,031.4,33.9,0002.9,0021.01,0011.52,0010.12
2023-06-21 19:53:00,SystemResetWarning,0832.1,4.97,000.00,031.2,027.1,000.0,039.3,031.5,34.4,0002.7,0021.41,0011.51,0010.14
2023-06-21 19:54:00,SystemResetWarning,0832.1,5.05,000.00,031.3,027.4,000.0,039.3,031.5,34.0,0002.7,0021.54,0011.54,0010.18
2023-06-21 19:55:00,SystemResetWarning,0832.1,4.97,000.00,031.4,027.7,000.0,039.4,031.6,32.9,0002.7,0021.58,0011.56,0010.21
2023-06-21 19:56:00,SystemResetWarning,0832.1,5.02,000.00,031.4,027.9,000.0,039.4,031.6,33.2,0002.6,0021.22,0011.55,0010.20
2023-06-21 19:57:00,SystemResetWarning,0832.1,4.98,000.00,031.4,027.8,000.0,039.4,031.7,33.8,0002.5,0021.14,0011.57,0010.22
2023-06-21 19:58:00,SystemResetWarning,0832.0,4.98,000.00,031.5,026.2,000.0,039.3,031.6,34.9,0002.5,0020.15,0011.59,0010.25
2023-06-21 19:59:00,SystemResetWarning,0832.0,5.03,000.00,031.5,024.9,000.0,039.3,031.6,35.2,0002.6,0019.94,0011.53,0010.24
